Flag for Netherlands Weather past 2 weeks in Zoetermeer, Netherlands

Now
43 °F

Passing clouds.


Feels Like: 33 °F
Forecast: 41 / 47 °F
Wind: 23 mph from West

Location: Rotterdam Zestienhoven Airport

Current Time: Apr 1, 2015 at 12:39:12 AM

Latest Report: Mar 31, 2015 at 11:55 PM


Visibility: N/A

Pressure: 29.83 "Hg

Humidity: 71%

Dew point: 34 °F

Location of ZoetermeerLocation

Historic Weather in Zoetermeer — Graph

°F

Zoetermeer temperature yesterday

Maximum temperature yesterday: 52 °F (at 9:55 AM)
Minimum temperature yesterday: 37 °F (at 7:25 PM)
Average temperature yesterday: 48 °F

Past Weeks' High & Low Weather Summary

 TemperatureHumidityPressure
High61 °F (Mar 17, 2:25 PM)100% (Mar 16, 11:55 PM)30.42 "Hg (Mar 16, 11:55 PM)
Low30 °F (Mar 23, 5:25 AM)45% (Mar 17, 4:25 PM)29.21 "Hg (Mar 29, 4:55 PM)
Average44 °F84%29.97 "Hg
* Reported Mar 16 9:25 PM — Mar 31 10:55 PM, Zoetermeer, Weather by CustomWeather, © 2015

Note: Actual official high and low records may vary slightly from our data, if they occured in-between our weather recording intervals... More about our weather records

Advertising

Zoetermeer weather history for previous 24 hours

 ConditionsComfort  
Time TempWeatherWind HumidityBarometerVisibility
10:55 PM
Tue, Mar 31
45 °FPassing clouds.23 mph61%29.83 "HgN/A
10:25 PM45 °FClear.22 mph66%29.80 "HgN/A
9:55 PM43 °FQuite cool.20 mph76%29.80 "HgN/A
9:25 PM43 °FClear.23 mph76%29.80 "HgN/A
8:55 PM41 °FClear.16 mph81%29.80 "HgN/A
8:25 PM43 °FThunderstorms. Scattered clouds.15 mph81%29.80 "HgN/A
7:55 PM41 °FPassing clouds.16 mph81%29.77 "HgN/A
7:25 PM37 °FStrong thunderstorms. Broken clouds.32 mph93%29.80 "Hg6 mi
6:55 PM46 °FPartly sunny.25 mph71%29.74 "HgN/A
6:25 PM50 °FClear.23 mph67%29.74 "HgN/A
5:55 PM50 °FClear.23 mph67%29.71 "HgN/A
5:25 PM50 °FClear.28 mph62%29.71 "HgN/A
4:55 PM50 °FPassing clouds.26 mph62%29.71 "HgN/A
4:25 PM52 °FCool.24 mph62%29.68 "HgN/A
3:55 PM52 °FClear.26 mph58%29.68 "HgN/A
3:25 PM52 °FCool.26 mph62%29.68 "HgN/A
2:55 PM52 °FClear.29 mph58%29.65 "HgN/A
2:25 PM52 °FPassing clouds.31 mph58%29.62 "HgN/A
1:55 PM52 °FPassing clouds.29 mph67%29.62 "HgN/A
1:25 PM52 °FScattered clouds.30 mph67%29.59 "HgN/A
12:55 PM52 °FPassing clouds.28 mph62%29.56 "HgN/A
12:25 PM50 °FScattered clouds.32 mph67%29.53 "HgN/A
11:55 AM50 °FBroken clouds.31 mph71%29.50 "HgN/A
11:25 AM50 °FBroken clouds.30 mph71%29.47 "HgN/A
10:55 AM50 °FScattered clouds.32 mph71%29.45 "HgN/A
10:25 AM50 °FPartly sunny.32 mph71%29.42 "HgN/A
9:55 AM52 °FPassing clouds.29 mph67%29.39 "HgN/A
9:25 AM50 °FPassing clouds.30 mph71%29.36 "HgN/A
8:55 AM50 °FPassing clouds.28 mph71%29.33 "HgN/A
8:25 AM50 °FPassing clouds.29 mph67%29.33 "HgN/A
7:55 AM50 °FPassing clouds.25 mph71%29.30 "HgN/A
7:25 AM50 °FPartly cloudy.24 mph82%29.27 "HgN/A
6:55 AM50 °FSprinkles. Passing clouds.30 mph88%29.27 "Hg3 mi
6:25 AM50 °FPartly cloudy.35 mph88%29.24 "Hg4 mi
5:55 AM50 °FLight rain. Partly cloudy.32 mph94%29.24 "HgN/A
5:25 AM50 °FLight rain. Overcast.36 mph94%29.24 "Hg2 mi
4:55 AM50 °FLight rain. Overcast.33 mph94%29.24 "Hg5 mi
4:25 AM50 °FDrizzle. Mostly cloudy.35 mph94%29.27 "Hg2 mi
3:55 AM50 °FMostly cloudy.33 mph94%29.27 "Hg6 mi
3:25 AM50 °FSprinkles. Mostly cloudy.32 mph94%29.27 "Hg2 mi
2:55 AM50 °FLight rain. Mostly cloudy.31 mph94%29.30 "Hg4 mi
2:25 AM48 °FSprinkles. Mostly cloudy.26 mph100%29.36 "Hg2 mi
1:55 AM46 °FLight rain. Mostly cloudy.22 mph100%29.39 "Hg6 mi
1:25 AM45 °FSprinkles. Mostly cloudy.18 mph93%29.45 "Hg3 mi
12:55 AM43 °FLight rain. Mostly cloudy.18 mph100%29.47 "Hg4 mi
12:25 AM43 °FSprinkles. Partly cloudy.17 mph93%29.53 "Hg3 mi
Weather by CustomWeather, © 2015

See weather overviewHow to use our weather pages